User: anonymous   Login
Location: Mount Wilson Observatory
(34.2257°N, 118.0571°W)
Time: 08:25:09
(UTC-07:00)
Language:

ATLAS 3B CENTAUR R/B - Orbit

View from above orbital plane
View from above orbital plane
View from above satellite
View from above satellite

Ground track
Ground track

The orbit data is extracted from the following two-line orbital elements,

1 28118U 03057B   15188.09692310  .00074059  00000-0  12273-2 0  9990
2 28118 028.1554 054.5862 3581023 317.4013 257.5433 08.33048946226440
Epoch (UTC): 07 July 2015 02:19:34
Eccentricity: 0.3581023
inclination: 28.1554°
perigee height: 220 km
apogee height: 7582 km
right ascension of ascending node: 54.5862°
argument of perigee: 317.4013°
revolutions per day: 8.33048946
mean anomaly at epoch: 257.5433°
orbit number at epoch: 22644

The dashed part of the orbit path shows where the satellite is in the earth's shadow,  

DLR